Location: Goheenville
(40.9070°N, 79.3720°W)
Time: 09:24:06
(UTC-04:00)

Meteor 2-10 Rocket - Visible Passes

Search period start: 23 May 2015 00:00
Search period end: 02 June 2015 00:00
Orbit: 733 x 886 km, 81.2° (Epoch: 22 May)

Date Brightness Start Highest point End Pass type
(mag) Time Alt. Az. Time Alt. Az. Time Alt. Az.
23 May 7.2 21:03:17 10° W 21:05:07 11° WNW 21:06:37 10° NW visible
26 May 6.0 05:02:48 10° NNE 05:07:00 26° ENE 05:11:23 10° SE visible
27 May 6.4 04:39:06 10° NNE 04:42:36 19° ENE 04:46:19 10° ESE visible
28 May 6.6 04:15:47 10° NE 04:18:07 13° ENE 04:20:46 10° E visible
30 May 4.4 05:07:19 10° N 05:12:24 56° ENE 05:17:41 10° SSE visible
31 May 5.0 04:43:16 10° N 04:48:07 40° ENE 04:53:10 10° SE visible
01 Jun 5.6 04:19:19 10° NNE 04:23:47 29° ENE 04:28:27 10° SE visible
